Regional Weather Roundup
Issued by NWS

Home | Current Version | Previous Version | Text Only | Print | Product List | Glossary On
Versions: 1 2 3 4 5 6 7 8 9 10 11 12 13 14 15 16 17 18 19 20 21 22 23 24 25 26 27 28 29 30 31 32 33 34 35 36 37 38 39 40 41 42 43 44 45 46 47 48 49 50
000
ASCA44 KEWX 270920
RWRMX

LATIN AMERICA AND CARIBBEAN REGIONAL WEATHER ROUNDUP
NATIONAL WEATHER SERVICE AUSTIN/SAN ANTONIO TX
300 AM CST MON FEB 27 2017

NOTE: "FAIR" INDICATED FEW OR NO CLOUDS BELOW 12,000 FEET WITH NO
SIGNIFICANT WEATHER AND/OR OBSTRUCTIONS TO VISIBILITY.

BAJA CALIFORNIA

CITY           SKY/WX    TMP DP  RH WIND       PRES   REMARKS
MEXICALI       CLEAR     52  39  62 CALM      29.91S
S.J. DEL CABO    N/A    N/A N/A N/A MISG        N/A
TIJUANA        DRZL/FOG  52  48  87 CALM      29.99F VSB 1

NORTHWESTERN MEXICO

CITY           SKY/WX    TMP DP  RH WIND       PRES   REMARKS
HERMOSILLO     CLOUDY    61  46  59 CALM      30.00S

NORTHEASTERN MEXICO

CITY           SKY/WX    TMP DP  RH WIND       PRES   REMARKS
MONCLOVA         N/A    N/A N/A N/A MISG        N/A
MONTERREY      MOCLDY    63  61  94 W6        29.86F
REYNOSA          N/A    N/A N/A N/A MISG        N/A
CD. VICTORIA     N/A    N/A N/A N/A MISG        N/A

WESTERN MEXICO

CITY           SKY/WX    TMP DP  RH WIND       PRES   REMARKS
AGUASCALIENTES   N/A    N/A N/A N/A MISG        N/A
COLIMA           N/A    N/A N/A N/A MISG        N/A
GUADALAJARA    CLEAR     54  39  58 CALM      30.18F
MAZATLAN       FOG       59  59 100 N3        29.97F VSB 0
P. VALLARTA    CLEAR     64  63  94 N3        29.96F
URUAPAN          N/A    N/A N/A N/A MISG        N/A
ZACATECAS        N/A    N/A N/A N/A MISG        N/A

CENTRAL MEXICO

CITY           SKY/WX    TMP DP  RH WIND       PRES   REMARKS
CUERNAVACA       N/A    N/A N/A N/A MISG        N/A
MEXICO CITY    CLEAR     59  32  36 SW2       30.28S
MORELIA        CLEAR     46  30  53 CALM      30.21F
POZA RICA        N/A    N/A N/A N/A MISG        N/A
QUERETARO      CLEAR     46  32  57 CALM      30.26F
S. LUIS POTOSI CLEAR     45  25  45 CALM      30.18S
TOLUCA         CLEAR     41  34  75 CALM      30.37S

SOUTHERN MEXICO

CITY           SKY/WX    TMP DP  RH WIND       PRES   REMARKS
ACAPULCO         N/A    N/A N/A N/A MISG        N/A
B. DE HUATULCO   N/A    N/A N/A N/A MISG        N/A
P. ESCONDIDO     N/A    N/A N/A N/A MISG        N/A
VERACRUZ         N/A    N/A N/A N/A MISG        N/A

YUCATAN PENINSULA

CITY           SKY/WX    TMP DP  RH WIND       PRES   REMARKS
CAMPECHE         N/A    N/A N/A N/A MISG        N/A
CANCUN         CLEAR     75  70  83 E3        30.01F
CHETUMAL         N/A    N/A N/A N/A MISG        N/A
CD. DEL CARMEN   N/A    N/A N/A N/A MISG        N/A
COZUMEL        CLEAR     70  68  94 E5        29.98F
MERIDA         CLEAR     70  63  78 E5        29.99F
MINATITLAN       N/A    N/A N/A N/A MISG        N/A
TAPACHULA      PTCLDY    75  72  88 CALM      29.88

CENTRAL AMERICA

CITY           SKY/WX    TMP DP  RH WIND       PRES   REMARKS

CARIBBEAN

CITY           SKY/WX    TMP DP  RH WIND       PRES   REMARKS
ARUBA          PTCLDY    79  72  78 E16       29.92S
CURACAO        PTCLDY    79  72  78 E13       29.92S
KINGSTON       PTCLDY    77  68  73 NW3       29.97S
NASSAU         PTCLDY    75  68  78 NE9       30.17R
SAN JUAN       MOCLDY    75  73  94 S3        30.04S
SANTO DOMINGO    N/A     70  68  94 N5        30.03R
ST. CROIX      PTCLDY    73  70  88 NE7       30.03
ST. MAARTEN    PTCLDY    77  70  78 E10       30.03R
ST. THOMAS     MOCLDY    73  70  88 E8        30.02

$$




USA.gov is the U.S. government's official web portal to all federal, state and local government web resources and services.